User: anonymous   Login
Location: Unspecified
(42.0334°N, 93.6656°W)
Time: 08:52:31
(UTC-05:00)
Language:

Iridium 63 - Orbit

View from above orbital plane
View from above orbital plane
View from above satellite
View from above satellite

Ground track
Ground track

The orbit data is extracted from the following two-line orbital elements,

1 25286U 98021B   15146.55495840  .00000144  00000-0  44080-4 0  9999
2 25286 086.4005 178.8631 0002409 085.5532 025.0602 14.34457075897149
Epoch (UTC): 26 May 2015 13:19:08
Eccentricity: 0.0002409
inclination: 86.4005°
perigee height: 775 km
apogee height: 778 km
right ascension of ascending node: 178.8631°
argument of perigee: 85.5532°
revolutions per day: 14.34457075
mean anomaly at epoch: 25.0602°
orbit number at epoch: 89714

The dashed part of the orbit path shows where the satellite is in the earth's shadow,  

DLR